Find Starlink 6082

NORAD ID: 56110 Int'l Des: 2023-046 Owner: SPXS Country: US Constellation: starlink operational
LEOCIRCULAR

リアルタイム位置

3D地球を読み込み中...

Starlink 6082について

説明を読み込み中...

次回通過

Passes for default location (London). Set your location on the main map for personalized predictions.

高度履歴

Loading altitude history...

軌道要素

1 56110U 23046T 26121.74607249 .00004454 00000-0 17130-3 0 9991
2 56110 43.0007 222.0986 0001840 264.7776 95.2866 15.27577531170142
Epoch: May 1, 2026 • Age: 10 hours

現在のステータス

高度 483.1 km
速度 7.63 km/s
衛星直下点 -2.96°S, 120.89°E
打ち上げ日 Mar 29, 2023
運用期間 3 years
タイプ internet

技術仕様

分類 Payload
質量 305.00 kg
乾燥質量 290.00 kg
総質量 305.00 kg
長さ 0.20 m
直径 2.80 m
スパン 9.00 m
形状 Box + pan
製造者 SPXS
バスタイプ Starlink
フェーズステータス In Orbit
所有者/国 SPXS/US

Most Searched